This demonstration page uses our WeatherBlox Daily Observations layout. Learn more.

Hourly Observations for March 8, 2019

Temp ( °F °C ) Dew Point ( °F °C ) Humidity (%) Winds ( mph kmh ) Pressure ( in mb ) Visibility ( mi km ) Precip ( " mm )
12:15 am 00:15 Cloudy 27 -2.8 27 -2.8 100 100 SE 3 6 30.09 1019 7 11.26538 0 0
12:35 am 00:35 Cloudy 27 -2.8 27 -2.8 100 100 SE 3 6 30.09 1019 7 11.26538 0 0
12:55 am 00:55 Cloudy 27 -2.7 27 -2.7 100 100 SE 3 6 30.08 1019 7 11.26538 0 0
1:15 am 01:15 Cloudy 27 -2.8 27 -2.8 100 100 SE 7 11 30.07 1018 7 11.26538 0 0
1:35 am 01:35 Cloudy with Mist and Fog 27 -3 27 -3 100 100 SSE 3 6 30.07 1018 5 8.0467 0 0
1:55 am 01:55 Cloudy with Mist and Fog 26 -3.1 26 -3.1 100 100 ESE 6 9 30.06 1018 4 6.43736 0 0
2:15 am 02:15 Cloudy with Mist and Fog 26 -3.4 26 -3.4 100 100 ESE 5 7 30.08 1019 1.75 2.816345 0 0
2:35 am 02:35 Cloudy with Mist and Fog 26 -3.5 26 -3.5 100 100 Calm 30.07 1018 2 3.21868 0 0
2:55 am 02:55 Cloudy with Mist and Fog 26 -3.6 26 -3.6 100 100 SSE 3 6 30.06 1018 1 1.60934 0 0
3:15 am 03:15 Cloudy with Mist and Fog 26 -3.5 26 -3.5 100 100 Calm 30.06 1018 0.75 1.207005 0 0
3:35 am 03:35 Cloudy with Freezing Fog 26 -3.6 26 -3.6 100 100 Calm 30.06 1018 0.5 0.80467 0 0
3:55 am 03:55 Cloudy with Freezing Fog 25 -3.7 25 -3.7 100 100 Calm 30.06 1018 0.25 0.402335 0 0
4:15 am 04:15 Cloudy with Freezing Fog 25 -3.8 25 -3.8 100 100 Calm 30.05 1018 0.25 0.402335 0 0
4:35 am 04:35 Cloudy with Freezing Fog 25 -4 25 -4 100 100 S 3 6 30.06 1018 0.25 0.402335 0 0
4:55 am 04:55 Cloudy with Freezing Fog 24 -4.3 24 -4.3 100 100 S 3 6 30.07 1018 0.25 0.402335 0 0
5:15 am 05:15 Cloudy with Freezing Fog 24 -4.2 24 -4.2 100 100 Calm 30.07 1018 0.25 0.402335 0 0
5:35 am 05:35 Cloudy with Freezing Fog 24 -4.5 24 -4.5 100 100 SSE 3 6 30.07 1018 0.25 0.402335 0 0
5:55 am 05:55 Cloudy with Freezing Fog 24 -4.5 24 -4.5 100 100 Calm 30.07 1018 0.25 0.402335 0 0
6:15 am 06:15 Cloudy with Freezing Fog 24 -4.6 24 -4.6 100 100 Calm 30.07 1018 0.25 0.402335 0 0
6:35 am 06:35 Cloudy with Freezing Fog 23 -5 23 -5 100 100 Calm 30.07 1018 0.25 0.402335 0 0
6:55 am 06:55 Cloudy with Freezing Fog 23 -5.2 23 -5.2 100 100 Calm 30.07 1018 0.25 0.402335 0 0
7:15 am 07:15 Cloudy with Freezing Fog 22 -5.3 22 -5.3 100 100 E 6 9 30.06 1018 5 8.0467 0 0
7:35 am 07:35 Cloudy with Freezing Fog N/A N/A N/A ESE 5 7 N/A 5 8.0467 0 0
7:55 am 07:55 Cloudy with Fog N/A N/A N/A ESE 5 7 N/A 5 8.0467 0 0
8:15 am 08:15 Cloudy with Fog N/A N/A N/A SE 3 6 N/A 5 8.0467 0 0
8:35 am 08:35 Cloudy with Fog N/A N/A N/A SE 3 6 N/A 5 8.0467 0 0
8:55 am 08:55 Cloudy with Fog N/A N/A N/A SE 5 7 N/A 5 8.0467 0 0
9:15 am 09:15 Cloudy with Fog N/A N/A N/A SSE 6 9 N/A 5 8.0467 0 0
9:35 am 09:35 Cloudy with Fog N/A N/A N/A S 7 11 N/A 0.25 0.402335 0 0
9:55 am 09:55 Cloudy with Fog N/A N/A N/A S 5 7 N/A 0.25 0.402335 0 0
10:15 am 10:15 Cloudy with Fog N/A N/A N/A S 3 6 N/A 0.25 0.402335 0 0
10:35 am 10:35 Cloudy with Fog N/A N/A N/A SSE 3 6 N/A 0.25 0.402335 0 0
10:55 am 10:55 Cloudy with Fog N/A N/A N/A SSE 5 7 N/A 0.25 0.402335 0 0
11:15 am 11:15 Cloudy with Fog N/A N/A N/A SSE 7 11 N/A 0.25 0.402335 0 0
11:35 am 11:35 Cloudy with Fog N/A N/A N/A SSE 8 13 N/A 0.5 0.80467 0 0
11:55 am 11:55 Cloudy with Fog N/A N/A N/A SSE 8 13 N/A 0.5 0.80467 0 0
12:15 pm 12:15 Cloudy with Mist and Fog N/A N/A N/A S 8 13 N/A 1.5 2.41401 0 0
12:35 pm 12:35 Cloudy with Mist and Fog N/A N/A N/A S 8 13 N/A 3 4.82802 0 0
12:55 pm 12:55 Cloudy with Mist and Fog N/A N/A N/A S 8 13 N/A 3 4.82802 0 0
1:15 pm 13:15 Cloudy with Mist and Fog N/A N/A N/A SSE 8 13 N/A 2.5 4.02335 0 0
1:35 pm 13:35 Cloudy with Mist and Fog 30 -1.3 30 -1.3 100 100 SSE 8 13 29.97 1015 3 4.82802 0 0
1:55 pm 13:55 Cloudy with Mist and Fog 30 -1.2 30 -1.2 100 100 SSE 9 15 29.95 1014 3 4.82802 0 0
2:15 pm 14:15 Cloudy with Mist and Fog 30 -1.1 30 -1.1 100 100 ESE 8 13 29.92 1013 4 6.43736 0 0
2:35 pm 14:35 Cloudy with Mist and Fog 31 -0.7 31 -0.7 100 100 SE 10 17 29.91 1013 4 6.43736 0 0
2:55 pm 14:55 Cloudy with Mist and Fog 31 -0.7 31 -0.7 100 100 ESE 12 19 29.91 1013 4 6.43736 0 0
3:15 pm 15:15 Cloudy with Mist and Fog 31 -0.7 31 -0.7 100 100 ESE 10 17 29.89 1012 3 4.82802 0 0
3:35 pm 15:35 Cloudy with Mist and Fog 31 -0.5 31 -0.5 100 100 ESE 12 19 29.89 1012 4 6.43736 0 0
3:55 pm 15:55 Cloudy with Mist and Fog 31 -0.3 31 -0.5 99 99 ESE 14 22 29.88 1012 4 6.43736 0 0
4:15 pm 16:15 Cloudy with Mist and Fog 32 -0.2 31 -0.5 98 98 ESE 14 22 29.87 1011 4 6.43736 0 0
4:35 pm 16:35 Cloudy with Mist and Fog 32 -0.1 31 -0.3 99 99 ESE 15 24 29.86 1011 4 6.43736 0 0
4:55 pm 16:55 Cloudy with Mist and Fog 32 0 31 -0.4 97 97 ESE 14 22 29.84 1011 4 6.43736 0 0
5:15 pm 17:15 Cloudy with Mist and Fog 32 0 32 -0.2 99 99 ESE 15 24 29.83 1010 4 6.43736 0 0
5:35 pm 17:35 Cloudy with Mist and Fog 32 -0.2 31 -0.4 99 99 ESE 16 26 29.84 1010 3 4.82802 0 0
5:55 pm 17:55 Cloudy with Mist and Fog 32 -0.1 32 -0.1 100 100 SE 18 30 29.82 1010 0.75 1.207005 0 0
6:15 pm 18:15 Cloudy with Freezing Fog 31 -0.5 31 -0.5 100 100 SE 15 24 29.82 1010 0.25 0.402335 0 0
6:35 pm 18:35 Cloudy with Freezing Fog 31 -0.5 31 -0.5 100 100 SE 15 24 29.82 1010 0.25 0.402335 0 0
6:55 pm 18:55 Cloudy with Freezing Fog 31 -0.3 31 -0.3 100 100 SE 17 28 29.8 1009 0.25 0.402335 0 0
7:15 pm 19:15 Cloudy with Fog 32 -0.1 32 -0.1 100 100 SE 16 26 29.77 1008 0.5 0.80467 0 0
7:35 pm 19:35 Cloudy with Fog 32 0 32 0 100 100 SE 16 26 29.78 1009 0.5 0.80467 0 0
7:55 pm 19:55 Cloudy with Fog 32 0 32 0 100 100 ESE 14 22 29.77 1008 0.5 0.80467 0 0
8:15 pm 20:15 Cloudy with Fog 32 0 32 0 100 100 ESE 16 26 29.76 1008 0.5 0.80467 0 0
8:35 pm 20:35 Cloudy with Fog 32 0.1 32 0.1 100 100 ESE 17 28 29.75 1008 0.5 0.80467 0 0
8:55 pm 20:55 Cloudy with Light Snow 32 0.1 32 0.1 100 100 ESE 17 28 29.73 1007 0.5 0.80467 0 0
9:15 pm 21:15 Cloudy with Fog 32 0.1 32 0.1 100 100 ESE 20 31 29.72 1007 0.5 0.80467 0 0
9:35 pm 21:35 Cloudy with Light Snow 32 0.1 32 0.1 100 100 ESE 18 30 29.72 1007 0.75 1.207005 0 0
9:55 pm 21:55 Cloudy with Light Snow 32 0.1 32 0.1 100 100 ESE 17 28 29.71 1006 1 1.60934 0 0
10:15 pm 22:15 Cloudy with Mist and Fog 32 0.1 32 0.1 100 100 ESE 17 28 29.7 1006 1.25 2.011675 0 0
10:35 pm 22:35 Cloudy with Light Snow 32 0.1 32 0.1 100 100 ESE 16 26 29.7 1006 1 1.60934 0 0
10:55 pm 22:55 Cloudy with Light Snow 32 0.1 32 0.1 100 100 ESE 16 26 29.68 1005 1 1.60934 0 0
11:15 pm 23:15 Cloudy with Light Snow 32 0.1 32 0.1 100 100 ESE 18 30 29.66 1004 1.5 2.41401 0 0
11:35 pm 23:35 Cloudy with Mist and Fog 32 0.1 32 0.1 100 100 ESE 21 33 29.65 1004 1.75 2.816345 0 0
11:55 pm 23:55 Windy with Snow Likely 32 0.1 32 0.1 100 100 ESE 21 33 29.63 1003 1 1.60934 0 0

Powered by AerisWeather